HR2RCH-13 Weather Reports


time (UTC)temp
C
wind
direction
speed
KPH
gust
KPH
rain 1hr
cm
rain 24hr
cm
rain mn
cm
humidity
%
barometer
mb
20260504081549 -17 122 0.0 3.2 0.00 0.00 0.00 1010.1
20260504044548 -17 57 1.6 4.8 0.00 0.00 0.00 1012.0
20260504043050 -17 66 1.6 3.2 0.00 0.00 0.00 1012.2
20260504041545 -17 65 1.6 4.8 0.00 0.00 0.00 1012.3
20260504040051 -17 37 0.0 4.8 0.00 0.00 0.00 1012.3
20260504034545 -17 49 1.6 3.2 0.00 0.00 0.00 1012.2
20260504033045 -17 46 1.6 3.2 0.00 0.00 0.00 1012.0
20260504031548 -17 37 0.0 3.2 0.00 0.00 0.00 1012.0
20260504030050 -17 0 0.0 0.0 0.00 0.00 0.00 1012.0
20260504024601 -17 252 1.6 4.8 0.00 0.00 0.00 1012.0
20260504023052 -17 0 0.0 1.6 0.00 0.00 0.00 1012.0
20260504021546 -17 0 0.0 4.8 0.00 0.00 0.00 1012.0
20260504020045 -17 208 1.6 11.3 0.00 0.00 0.00 1012.0
20260504014548 -17 261 1.6 6.4 0.00 0.00 0.00 1011.7
20260504013046 -17 249 0.0 4.8 0.00 0.00 0.00 1011.4
20260504011550 -17 269 3.2 9.7 0.00 0.00 0.00 1011.2
20260504010047 -17 269 3.2 9.7 0.00 0.00 0.00 1011.1
20260504004547 -17 261 4.8 12.9 0.00 0.00 0.00 1010.9
20260504003051 -17 274 3.2 8.0 0.00 0.00 0.00 1010.7
20260504001550 -17 276 3.2 6.4 0.00 0.00 0.00 1010.2
20260504000116 -17 244 1.6 4.8 0.00 0.00 0.00 1009.8
20260503234557 -17 251 3.2 19.3 0.00 0.00 0.00 1009.2
20260503233044 -17 240 1.6 12.9 0.00 0.00 0.00 1008.6
20260503231546 -17 183 1.6 11.3 0.00 0.00 0.00 1008.4
20260503230051 -17 182 4.8 19.3 0.00 0.00 0.00 1008.3
20260503224549 -17 281 6.4 14.5 0.00 0.00 0.00 1008.0
20260503223051 -17 181 6.4 16.1 0.00 0.00 0.00 1007.7
20260503221554 -17 243 4.8 14.5 0.00 0.00 0.00 1007.2
20260503220050 -17 233 4.8 11.3 0.00 0.00 0.00 1007.1
20260503214546 -17 264 8.0 14.5 0.00 0.00 0.00 1007.4
20260503213046 -17 162 6.4 16.1 0.00 0.00 0.00 1007.6
20260503211552 -17 263 6.4 17.7 0.00 0.00 0.00 1007.5
20260503210049 -17 259 3.2 14.5 0.00 0.00 0.00 1007.6
20260503204548 -17 156 8.0 16.1 0.00 0.00 0.00 1007.8
20260503203104 -17 278 4.8 14.5 0.00 0.00 0.00 1008.1
20260503201548 -17 0 4.8 16.1 0.00 0.00 0.00 1008.2
20260503200048 -17 193 3.2 12.9 0.00 0.00 0.00 1008.6
20260503194553 -17 248 4.8 11.3 0.00 0.00 0.00 1008.8
20260503193051 -17 132 4.8 14.5 0.00 0.00 0.00 1009.0
20260503191547 -17 144 4.8 14.5 0.00 0.00 0.00 1009.3
20260503190047 -17 259 8.0 20.9 0.00 0.00 0.00 1009.5
20260503184546 -17 267 3.2 12.9 0.00 0.00 0.00 1010.0
20260503183116 -17 244 4.8 9.7 0.00 0.00 0.00 1010.1
20260503181551 -17 146 3.2 9.7 0.00 0.00 0.00 1010.4
20260503180044 -17 86 0.0 9.7 0.00 0.00 0.00 1010.6
20260503174552 -17 154 4.8 16.1 0.00 0.00 0.00 1011.0
20260503173056 -17 259 1.6 9.7 0.00 0.00 0.00 1011.4
20260503171549 -17 210 3.2 12.9 0.00 0.00 0.00 1011.7